EST,Max TemperatureF,Mean TemperatureF,Min TemperatureF,Max Dew PointF,MeanDew PointF,Min DewpointF,Max Humidity, Mean Humidity, Min Humidity, Max Sea Level PressureIn, Mean Sea Level PressureIn, Min Sea Level PressureIn, Max VisibilityMiles, Mean VisibilityMiles, Min VisibilityMiles, Max Wind SpeedMPH, Mean Wind SpeedMPH, Max Gust SpeedMPH,PrecipitationIn, CloudCover, Events, WindDirDegrees
2012-12-1,45,42,38,39,35,32,100,87,73,30.48,30.42,30.39,10,6,0,13,7,17,0.00,8,Fog,63
2012-12-2,50,44,38,47,42,37,100,90,80,30.39,30.24,30.12,8,3,0,7,2,15,0.07,6,Fog-Rain,208
2012-12-3,65,55,44,51,46,43,100,76,52,30.24,30.17,30.11,10,4,0,10,2,14,0.00,5,Fog,273
2012-12-4,67,58,49,54,51,47,96,80,63,30.24,30.14,29.97,10,9,3,13,5,15,0.01,3,Rain,194
2012-12-5,58,46,34,51,35,18,86,63,40,30.25,30.06,29.92,10,10,10,24,9,31,0.01,3,,337
2012-12-6,41,34,27,24,19,17,72,56,40,30.37,30.30,30.26,10,10,10,12,2,16,0.00,0,,358
2012-12-7,42,34,26,40,34,23,100,86,72,30.26,30.11,30.00,10,6,2,6,1,18,0.23,7,Rain,23
2012-12-8,50,45,40,48,44,39,100,93,86,30.01,29.93,29.87,6,3,0,9,3,14,0.13,8,Fog-Rain,331
2012-12-9,49,45,41,48,42,38,100,93,86,30.21,30.12,29.98,10,5,0,13,6,17,0.30,8,Fog-Rain,56
2012-12-10,59,52,45,58,53,44,100,94,87,29.95,29.67,29.55,7,2,0,14,3,18,0.03,7,Fog,228
2012-12-11,58,47,36,55,37,26,93,73,53,30.19,29.89,29.59,10,9,4,21,7,26,0.05,6,Rain,336
2012-12-12,44,38,31,28,26,24,78,64,49,30.41,30.34,30.19,10,10,10,12,4,15,0.00,0,,358
2012-12-13,47,38,28,25,23,21,72,55,37,30.45,30.39,30.31,10,10,10,12,4,15,0.00,0,,22
2012-12-14,50,37,24,27,24,21,92,63,34,30.31,30.24,30.17,10,10,6,14,4,18,0.00,0,,291
2012-12-15,47,38,29,35,30,24,85,73,60,30.31,30.24,30.15,10,10,7,9,4,12,0.00,2,,107
2012-12-16,52,46,40,48,43,34,93,83,73,30.17,29.99,29.87,10,6,1,17,7,22,0.17,8,Rain,94
2012-12-17,46,44,41,45,42,39,100,95,89,29.88,29.80,29.58,7,3,1,10,7,16,0.09,8,Rain,76
2012-12-18,56,49,41,47,43,30,100,81,61,29.67,29.54,29.46,10,7,0,23,9,32,0.32,6,Fog-Rain,302
2012-12-19,49,44,38,30,28,26,65,55,45,30.09,29.85,29.69,10,10,10,17,10,31,0.00,0,,318
2012-12-20,47,38,29,43,33,27,89,75,60,30.19,29.99,29.66,10,9,5,20,5,26,0.21,4,Rain,128
2012-12-21,57,47,36,55,41,25,93,75,57,29.67,29.30,29.10,10,7,2,37,16,47,1.10,8,Rain,236
2012-12-22,42,38,34,31,24,19,70,56,41,29.87,29.59,29.38,10,10,6,28,14,40,T,6,Snow,303
2012-12-23,45,39,32,23,20,14,64,46,28,29.99,29.92,29.87,10,10,10,16,7,23,0.00,3,,286
2012-12-24,39,31,23,32,26,20,96,72,48,30.08,30.00,29.89,10,7,1,10,4,14,0.15,4,Rain-Snow,75
2012-12-25,40,36,31,34,31,24,100,82,64,30.24,30.03,29.88,10,7,2,16,7,22,0.01,7,Rain,359
2012-12-26,40,34,27,37,29,22,92,79,66,30.26,29.90,29.38,10,7,2,36,15,46,1.08,6,Rain-Snow,69
2012-12-27,41,37,32,37,30,20,92,74,56,29.88,29.51,29.27,10,9,4,30,17,39,0.06,8,Rain,349
2012-12-28,39,32,25,23,21,19,75,65,54,30.09,30.03,29.89,10,10,10,21,7,30,0.00,3,,343
2012-12-29,33,30,27,30,27,22,100,88,75,30.02,29.68,29.52,10,6,0,16,6,26,0.21,7,Fog-Rain-Snow,20
2012-12-30,37,32,27,25,18,12,72,58,43,30.21,29.95,29.65,10,10,10,28,13,43,0.00,3,,330
2012-12-31,41,34,26,27,20,14,69,61,52,30.22,30.11,29.91,10,10,10,15,7,22,0.00,4,,271